EW0859 Weather Reports


Display with metric or nautical units.
time (UTC)temp
F
wind
direction
speed
MPH
gust
MPH
rain 1hr
in
rain 24hr
in
rain mn
in
humidity
%
barometer
mb
20260505124512 56 263 6.0 13.0 0.00 0.00 0.00 77 1006.9
20260505123004 56 272 2.0 12.0 0.00 0.00 0.00 77 1006.7
20260505121504 56 240 2.0 15.0 0.00 0.00 0.00 78 1006.6
20260505120002 56 212 5.0 8.0 0.00 0.00 0.00 78 1006.6
20260505114600 58 188 4.0 11.0 0.00 0.00 0.00 75 1006.6
20260505113104 58 244 4.0 12.0 0.00 0.00 0.00 74 1006.4
20260505111559 57 254 3.0 12.0 0.00 0.00 0.00 77 1006.4
20260505101553 59 269 6.0 12.0 0.00 0.00 0.00 75 1006.0
20260505100044 60 315 8.0 18.0 0.00 0.00 0.00 73 1005.9
20260505094545 59 245 7.0 13.0 0.00 0.00 0.00 76 1005.8
20260505093050 59 223 3.0 6.0 0.00 0.00 0.00 76 1005.8
20260505091538 60 223 4.0 13.0 0.00 0.00 0.00 76 1005.7
20260505090037 60 279 9.0 15.0 0.00 0.00 0.00 76 1005.6
20260505084536 60 284 9.0 13.0 0.00 0.00 0.00 78 1005.6
20260505083040 60 259 8.0 12.0 0.00 0.00 0.00 77 1005.7
20260505081533 60 281 9.0 14.0 0.00 0.00 0.00 76 1005.5
20260505080031 60 254 8.0 14.0 0.00 0.00 0.00 76 1005.6
20260505074528 61 275 7.0 13.0 0.00 0.00 0.00 76 1005.5
20260505073026 61 262 5.0 8.0 0.00 0.00 0.00 75 1005.6
20260505071524 61 229 5.0 7.0 0.00 0.00 0.00 75 1005.5
20260505070025 61 242 9.0 15.0 0.00 0.00 0.00 75 1005.2
20260505064520 61 244 8.0 12.0 0.00 0.00 0.00 74 1005.1
20260505063020 62 223 7.0 12.0 0.00 0.00 0.00 73 1005.1
20260505061522 62 213 8.0 14.0 0.00 0.00 0.00 72 1005.1
20260505060019 63 237 8.0 16.0 0.00 0.00 0.00 70 1004.9
20260505054519 63 238 9.0 16.0 0.00 0.00 0.00 69 1004.9
20260505053023 64 247 11.0 17.0 0.00 0.00 0.00 68 1004.9
20260505051518 64 223 9.0 17.0 0.00 0.00 0.00 67 1004.8
20260505041517 66 269 14.0 24.0 0.00 0.00 0.00 62 1004.0
20260505040034 66 263 16.0 26.0 0.00 0.00 0.00 61 1003.8
20260505034527 66 268 17.0 26.0 0.00 0.00 0.00 61 1003.6
20260505033016 67 269 16.0 25.0 0.00 0.00 0.00 60 1003.3
20260505031515 67 271 17.0 26.0 0.00 0.00 0.00 60 1003.1
20260505030017 68 231 17.0 24.0 0.00 0.00 0.00 59 1003.0
20260505024513 69 251 16.0 25.0 0.00 0.00 0.00 58 1003.0
20260505023013 70 267 14.0 20.0 0.00 0.00 0.00 57 1003.0
20260505021513 70 262 16.0 21.0 0.00 0.00 0.00 56 1003.0
20260505020014 72 248 15.0 24.0 0.00 0.00 0.00 54 1002.9
20260505014514 73 252 16.0 23.0 0.00 0.00 0.00 52 1002.9
20260505013011 73 251 18.0 25.0 0.00 0.00 0.00 50 1003.0
20260505011510 74 269 17.0 21.0 0.00 0.00 0.00 49 1003.0
20260505010009 75 277 14.0 21.0 0.00 0.00 0.00 48 1003.2
20260505004512 76 264 11.0 18.0 0.00 0.00 0.00 47 1003.3
20260505003006 77 226 12.0 16.0 0.00 0.00 0.00 44 1003.3
20260505001505 78 230 13.0 17.0 0.00 0.00 0.00 43 1003.4
20260505000004 79 263 14.0 18.0 0.00 0.00 0.00 39 1003.4
20260504234503 79 262 13.0 20.0 0.00 0.00 0.00 36 1003.5
20260504233003 80 277 13.0 18.0 0.00 0.00 0.00 35 1003.5
20260504231502 80 272 13.0 18.0 0.00 0.00 0.00 31 1003.6
20260504230001 80 269 12.0 17.0 0.00 0.00 0.00 31 1003.6
20260504224604 80 267 10.0 17.0 0.00 0.00 0.00 33 1003.9
20260504223058 81 233 9.0 15.0 0.00 0.00 0.00 31 1004.0
20260504221555 81 208 8.0 15.0 0.00 0.00 0.00 33 1004.2
20260504214556 80 253 6.0 13.0 0.00 0.00 0.00 32 1004.4
20260504213108 80 251 8.0 11.0 0.00 0.00 0.00 34 1004.6
20260504211550 80 192 6.0 15.0 0.00 0.00 0.00 35 1004.7
20260504210049 80 212 6.0 14.0 0.00 0.00 0.00 37 1004.8
20260504204555 80 196 6.0 10.0 0.00 0.00 0.00 38 1005.0
20260504203049 80 166 4.0 8.0 0.00 0.00 0.00 35 1005.0
20260504201543 79 283 2.0 6.0 0.00 0.00 0.00 37 1005.2
20260504200041 79 174 2.0 6.0 0.00 0.00 0.00 38 1005.4
20260504194541 78 189 4.0 7.0 0.00 0.00 0.00 34 1005.5
20260504193054 79 165 4.0 7.0 0.00 0.00 0.00 34 1005.5
20260504191537 78 164 2.0 6.0 0.00 0.00 0.00 37 1005.6
20260504190038 77 163 5.0 8.0 0.00 0.00 0.00 39 1005.6
20260504184533 77 229 5.0 7.0 0.00 0.00 0.00 42 1005.7
20260504183034 77 194 2.0 5.0 0.00 0.00 0.00 43 1005.6
20260504181534 76 184 1.0 4.0 0.00 0.00 0.00 45 1005.7
20260504180027 74 217 3.0 8.0 0.00 0.00 0.00 46 1005.7
20260504174525 74 329 2.0 8.0 0.00 0.00 0.00 47 1005.7
20260504173022 72 131 0.0 5.0 0.00 0.00 0.00 51 1005.8
20260504171520 72 116 2.0 4.0 0.00 0.00 0.00 60 1005.8